Time,TemperatureF,DewpointF,PressureIn,WindDirection,WindDirectionDegrees,WindSpeedMPH,WindSpeedGustMPH,Humidity,HourlyPrecipIn,Conditions,Clouds,dailyrainin,SoftwareType,DateUTC
2013-03-26 00:00:00,52.3,28.7,30.03,WNW,289,0.0,1.0,40,0.00,,,0.00,VWS V14.01,2013-03-26 04:00:00,
2013-03-26 00:06:00,52.1,28.5,30.03,WSW,241,0.0,1.0,40,0.00,,,0.00,VWS V14.01,2013-03-26 04:06:00,
2013-03-26 00:08:00,52.1,28.5,30.03,WSW,241,0.0,1.0,40,0.00,,,0.00,VWS V14.01,2013-03-26 04:08:00,
2013-03-26 00:09:00,52.0,29.0,30.03,East,92,0.0,4.0,41,0.00,,,0.00,VWS V14.01,2013-03-26 04:09:00,
2013-03-26 00:15:00,51.8,28.9,30.04,SSE,149,1.0,1.0,41,0.00,,,0.00,VWS V14.01,2013-03-26 04:15:00,
2013-03-26 00:21:00,51.7,28.2,30.04,WSW,257,0.0,4.0,40,0.00,,,0.00,VWS V14.01,2013-03-26 04:21:00,
2013-03-26 00:27:00,51.5,28.6,30.04,West,264,3.0,7.0,41,0.00,,,0.00,VWS V14.01,2013-03-26 04:27:00,
2013-03-26 00:33:00,51.4,27.9,30.04,WSW,240,0.0,10.0,40,0.00,,,0.00,VWS V14.01,2013-03-26 04:33:00,
2013-03-26 00:38:00,51.3,28.4,30.05,West,260,2.0,5.0,41,0.00,,,0.00,VWS V14.01,2013-03-26 04:38:00,
2013-03-26 00:43:00,51.1,28.2,30.05,WNW,303,0.0,7.0,41,0.00,,,0.00,VWS V14.01,2013-03-26 04:43:00,
2013-03-26 00:48:00,51.0,28.1,30.05,SW,236,1.0,8.0,41,0.00,,,0.00,VWS V14.01,2013-03-26 04:48:00,
2013-03-26 00:53:00,50.9,28.1,30.05,WSW,256,0.0,3.0,41,0.00,,,0.00,VWS V14.01,2013-03-26 04:53:00,
2013-03-26 01:01:00,50.7,27.3,30.05,SW,215,5.0,8.0,40,0.00,,,0.00,VWS V14.01,2013-03-26 05:01:00,
2013-03-26 01:07:00,50.6,27.8,30.05,WSW,241,0.0,5.0,41,0.00,,,0.00,VWS V14.01,2013-03-26 05:07:00,
2013-03-26 01:13:00,50.4,27.6,30.05,WSW,243,1.0,6.0,41,0.00,,,0.00,VWS V14.01,2013-03-26 05:13:00,
2013-03-26 01:18:00,50.2,27.4,30.05,West,261,0.0,6.0,41,0.00,,,0.00,VWS V14.01,2013-03-26 05:18:00,
2013-03-26 01:23:00,50.1,27.9,30.06,WSW,254,3.0,9.0,42,0.00,,,0.00,VWS V14.01,2013-03-26 05:23:00,
2013-03-26 01:33:00,49.9,27.7,30.06,WNW,303,0.0,8.0,42,0.00,,,0.00,VWS V14.01,2013-03-26 05:33:00,
2013-03-26 01:38:00,49.8,27.6,30.06,West,260,0.0,4.0,42,0.00,,,0.00,VWS V14.01,2013-03-26 05:38:00,
2013-03-26 01:43:00,49.6,27.5,30.05,WSW,249,2.0,5.0,42,0.00,,,0.00,VWS V14.01,2013-03-26 05:43:00,
2013-03-26 01:48:00,49.6,28.0,30.05,SW,223,3.0,7.0,43,0.00,,,0.00,VWS V14.01,2013-03-26 05:48:00,
2013-03-26 01:53:00,49.5,28.0,30.06,SSW,195,0.0,5.0,43,0.00,,,0.00,VWS V14.01,2013-03-26 05:53:00,
2013-03-26 01:58:00,49.4,27.9,30.05,West,276,0.0,6.0,43,0.00,,,0.00,VWS V14.01,2013-03-26 05:58:00,
2013-03-26 02:03:00,49.3,27.8,30.06,WSW,254,0.0,4.0,43,0.00,,,0.00,VWS V14.01,2013-03-26 06:03:00,
2013-03-26 02:08:00,49.2,27.7,30.06,West,262,2.0,6.0,43,0.00,,,0.00,VWS V14.01,2013-03-26 06:08:00,
2013-03-26 02:13:00,49.2,27.7,30.06,South,188,0.0,1.0,43,0.00,,,0.00,VWS V14.01,2013-03-26 06:13:00,
2013-03-26 02:19:00,49.0,28.0,30.06,SW,214,3.0,3.0,44,0.00,,,0.00,VWS V14.01,2013-03-26 06:19:00,
2013-03-26 02:25:00,48.9,28.0,30.06,NW,309,0.0,0.0,44,0.00,,,0.00,VWS V14.01,2013-03-26 06:25:00,
2013-03-26 02:31:00,48.8,27.9,30.06,SSW,200,0.0,7.0,44,0.00,,,0.00,VWS V14.01,2013-03-26 06:31:00,
2013-03-26 02:37:00,48.7,28.3,30.06,WSW,252,0.0,2.0,45,0.00,,,0.00,VWS V14.01,2013-03-26 06:37:00,
2013-03-26 02:43:00,48.5,28.1,30.06,WSW,253,0.0,1.0,45,0.00,,,0.00,VWS V14.01,2013-03-26 06:43:00,
2013-03-26 02:48:00,48.3,28.5,30.06,North,8,0.0,3.0,46,0.00,,,0.00,VWS V14.01,2013-03-26 06:48:00,
2013-03-26 02:53:00,48.3,28.5,30.06,WSW,258,1.0,5.0,46,0.00,,,0.00,VWS V14.01,2013-03-26 06:53:00,
2013-03-26 02:58:00,48.1,28.3,30.06,West,281,1.0,3.0,46,0.00,,,0.00,VWS V14.01,2013-03-26 06:58:00,
2013-03-26 03:03:00,48.1,28.3,30.06,North,9,0.0,5.0,46,0.00,,,0.00,VWS V14.01,2013-03-26 07:03:00,
2013-03-26 03:08:00,48.0,28.2,30.06,West,276,1.0,3.0,46,0.00,,,0.00,VWS V14.01,2013-03-26 07:08:00,
2013-03-26 03:13:00,47.8,28.6,30.06,NW,318,0.0,8.0,47,0.00,,,0.00,VWS V14.01,2013-03-26 07:13:00,
2013-03-26 03:18:00,47.7,29.0,30.06,WNW,283,1.0,1.0,48,0.00,,,0.00,VWS V14.01,2013-03-26 07:18:00,
2013-03-26 03:23:00,47.5,28.8,30.06,North,4,0.0,5.0,48,0.00,,,0.00,VWS V14.01,2013-03-26 07:23:00,
2013-03-26 03:28:00,47.4,28.7,30.06,NE,45,0.0,1.0,48,0.00,,,0.00,VWS V14.01,2013-03-26 07:28:00,
2013-03-26 03:33:00,47.2,29.0,30.06,NNE,28,0.0,4.0,49,0.00,,,0.00,VWS V14.01,2013-03-26 07:33:00,
2013-03-26 03:38:00,47.1,28.9,30.06,NW,307,0.0,4.0,49,0.00,,,0.00,VWS V14.01,2013-03-26 07:38:00,
2013-03-26 03:43:00,47.0,28.3,30.06,WSW,258,3.0,7.0,48,0.00,,,0.00,VWS V14.01,2013-03-26 07:43:00,
2013-03-26 03:48:00,46.9,28.2,30.06,NNE,31,0.0,3.0,48,0.00,,,0.00,VWS V14.01,2013-03-26 07:48:00,
2013-03-26 03:53:00,46.8,28.7,30.06,NNW,335,1.0,6.0,49,0.00,,,0.00,VWS V14.01,2013-03-26 07:53:00,
2013-03-26 03:58:00,46.6,28.5,30.07,NW,317,0.0,4.0,49,0.00,,,0.00,VWS V14.01,2013-03-26 07:58:00,
2013-03-26 04:03:00,46.5,28.4,30.07,NE,38,0.0,7.0,49,0.00,,,0.00,VWS V14.01,2013-03-26 08:03:00,
2013-03-26 04:08:00,46.4,28.3,30.07,North,4,0.0,3.0,49,0.00,,,0.00,VWS V14.01,2013-03-26 08:08:00,
2013-03-26 04:13:00,46.3,28.7,30.07,North,8,0.0,2.0,50,0.00,,,0.00,VWS V14.01,2013-03-26 08:13:00,
2013-03-26 04:18:00,46.2,28.6,30.07,NW,316,0.0,2.0,50,0.00,,,0.00,VWS V14.01,2013-03-26 08:18:00,
2013-03-26 04:23:00,46.0,28.4,30.07,NNE,23,0.0,1.0,50,0.00,,,0.00,VWS V14.01,2013-03-26 08:23:00,
2013-03-26 04:28:00,45.9,28.8,30.07,NNE,24,0.0,3.0,51,0.00,,,0.00,VWS V14.01,2013-03-26 08:28:00,
2013-03-26 04:35:00,45.7,29.1,30.07,SW,235,0.0,3.0,52,0.00,,,0.00,VWS V14.01,2013-03-26 08:35:00,
2013-03-26 04:41:00,45.5,28.9,30.07,North,359,0.0,9.0,52,0.00,,,0.00,VWS V14.01,2013-03-26 08:41:00,
2013-03-26 04:47:00,45.4,29.3,30.08,ENE,57,0.0,3.0,53,0.00,,,0.00,VWS V14.01,2013-03-26 08:47:00,
2013-03-26 04:53:00,45.2,29.6,30.07,NNE,31,0.0,2.0,54,0.00,,,0.00,VWS V14.01,2013-03-26 08:53:00,
2013-03-26 04:58:00,45.0,29.4,30.08,North,354,0.0,2.0,54,0.00,,,0.00,VWS V14.01,2013-03-26 08:58:00,
2013-03-26 05:03:00,44.8,29.2,30.08,North,359,5.0,7.0,54,0.00,,,0.00,VWS V14.01,2013-03-26 09:03:00,
2013-03-26 05:08:00,44.7,28.6,30.08,North,359,2.0,7.0,53,0.00,,,0.00,VWS V14.01,2013-03-26 09:08:00,
2013-03-26 05:14:00,44.5,28.5,30.08,WSW,257,0.0,2.0,53,0.00,,,0.00,VWS V14.01,2013-03-26 09:14:00,
2013-03-26 05:20:00,44.3,28.3,30.08,ENE,67,0.0,3.0,53,0.00,,,0.00,VWS V14.01,2013-03-26 09:20:00,
2013-03-26 05:26:00,44.1,28.5,30.08,NW,326,0.0,3.0,54,0.00,,,0.00,VWS V14.01,2013-03-26 09:26:00,
2013-03-26 05:33:00,43.9,27.9,30.08,NNE,13,1.0,3.0,53,0.00,,,0.00,VWS V14.01,2013-03-26 09:33:00,
2013-03-26 05:38:00,43.7,27.2,30.09,NNE,12,0.0,5.0,52,0.00,,,0.00,VWS V14.01,2013-03-26 09:38:00,
2013-03-26 05:43:00,43.6,26.7,30.09,NNE,15,0.0,6.0,51,0.00,,,0.00,VWS V14.01,2013-03-26 09:43:00,
2013-03-26 05:48:00,43.4,26.5,30.09,WSW,247,0.0,9.0,51,0.00,,,0.00,VWS V14.01,2013-03-26 09:48:00,
2013-03-26 05:53:00,43.3,25.9,30.09,North,8,0.0,7.0,50,0.00,,,0.00,VWS V14.01,2013-03-26 09:53:00,
2013-03-26 05:58:00,43.2,25.4,30.09,SSW,213,0.0,8.0,49,0.00,,,0.00,VWS V14.01,2013-03-26 09:58:00,
2013-03-26 06:08:00,42.9,25.1,30.10,WSW,251,0.0,3.0,49,0.00,,,0.00,VWS V14.01,2013-03-26 10:08:00,
2013-03-26 06:13:00,42.8,25.0,30.10,SSW,195,0.0,5.0,49,0.00,,,0.00,VWS V14.01,2013-03-26 10:13:00,
2013-03-26 06:18:00,42.7,24.4,30.10,NW,310,0.0,3.0,48,0.00,,,0.00,VWS V14.01,2013-03-26 10:18:00,
2013-03-26 06:24:00,42.5,24.7,30.10,WSW,241,0.0,1.0,49,0.00,,,0.00,VWS V14.01,2013-03-26 10:24:00,
2013-03-26 06:30:00,42.4,24.6,30.11,NE,34,1.0,1.0,49,0.00,,,0.00,VWS V14.01,2013-03-26 10:30:00,
2013-03-26 06:36:00,42.3,25.0,30.11,ENE,62,1.0,1.0,50,0.00,,,0.00,VWS V14.01,2013-03-26 10:36:00,
2013-03-26 06:42:00,42.1,25.3,30.11,ESE,115,3.0,3.0,51,0.00,,,0.00,VWS V14.01,2013-03-26 10:42:00,
2013-03-26 06:48:00,42.0,25.2,30.12,WNW,296,1.0,6.0,51,0.00,,,0.00,VWS V14.01,2013-03-26 10:48:00,
2013-03-26 06:53:00,41.9,25.6,30.12,NNE,18,0.0,6.0,52,0.00,,,0.00,VWS V14.01,2013-03-26 10:53:00,
2013-03-26 07:00:00,41.8,25.9,30.12,NE,39,0.0,3.0,53,0.00,,,0.00,VWS V14.01,2013-03-26 11:00:00,
2013-03-26 07:06:00,41.6,26.2,30.12,NE,40,0.0,3.0,54,0.00,,,0.00,VWS V14.01,2013-03-26 11:06:00,
2013-03-26 07:12:00,41.5,26.5,30.13,SSW,195,0.0,2.0,55,0.00,,,0.00,VWS V14.01,2013-03-26 11:12:00,
2013-03-26 07:18:00,41.4,26.5,30.13,NW,313,0.0,2.0,55,0.00,,,0.00,VWS V14.01,2013-03-26 11:18:00,
2013-03-26 07:23:00,41.3,26.4,30.13,NNE,32,0.0,3.0,55,0.00,,,0.00,VWS V14.01,2013-03-26 11:23:00,
2013-03-26 07:28:00,41.2,26.3,30.13,NNE,15,0.0,3.0,55,0.00,,,0.00,VWS V14.01,2013-03-26 11:28:00,
2013-03-26 07:33:00,41.2,26.7,30.13,NNE,30,0.0,3.0,56,0.00,,,0.00,VWS V14.01,2013-03-26 11:33:00,
2013-03-26 07:38:00,41.1,26.6,30.13,West,259,0.0,3.0,56,0.00,,,0.00,VWS V14.01,2013-03-26 11:38:00,
2013-03-26 07:43:00,41.1,26.6,30.14,SW,224,0.0,3.0,56,0.00,,,0.00,VWS V14.01,2013-03-26 11:43:00,
2013-03-26 07:49:00,41.3,26.8,30.14,West,273,0.0,3.0,56,0.00,,,0.00,VWS V14.01,2013-03-26 11:49:00,
2013-03-26 07:55:00,41.6,27.1,30.14,SW,228,1.0,1.0,56,0.00,,,0.00,VWS V14.01,2013-03-26 11:55:00,
2013-03-26 08:01:00,41.7,26.7,30.14,SSW,211,2.0,6.0,55,0.00,,,0.00,VWS V14.01,2013-03-26 12:01:00,
2013-03-26 08:07:00,41.7,26.7,30.14,SW,236,0.0,4.0,55,0.00,,,0.00,VWS V14.01,2013-03-26 12:07:00,
2013-03-26 08:13:00,41.8,27.3,30.14,West,266,0.0,4.0,56,0.00,,,0.00,VWS V14.01,2013-03-26 12:13:00,
2013-03-26 08:18:00,42.1,27.1,30.14,WSW,239,0.0,5.0,55,0.00,,,0.00,VWS V14.01,2013-03-26 12:18:00,
2013-03-26 08:23:00,42.3,27.7,30.15,West,267,4.0,5.0,56,0.00,,,0.00,VWS V14.01,2013-03-26 12:23:00,
2013-03-26 08:28:00,42.2,27.2,30.15,WSW,243,1.0,8.0,55,0.00,,,0.00,VWS V14.01,2013-03-26 12:28:00,
2013-03-26 08:33:00,42.3,27.7,30.15,West,272,6.0,7.0,56,0.00,,,0.00,VWS V14.01,2013-03-26 12:33:00,
2013-03-26 08:40:00,42.0,27.5,30.15,West,262,0.0,3.0,56,0.00,,,0.00,VWS V14.01,2013-03-26 12:40:00,
2013-03-26 08:46:00,42.3,26.4,30.15,West,267,1.0,7.0,53,0.00,,,0.00,VWS V14.01,2013-03-26 12:46:00,
2013-03-26 08:52:00,42.4,26.0,30.15,West,270,0.0,6.0,52,0.00,,,0.00,VWS V14.01,2013-03-26 12:52:00,
2013-03-26 08:58:00,42.9,26.0,30.15,WSW,256,5.0,6.0,51,0.00,,,0.00,VWS V14.01,2013-03-26 12:58:00,
2013-03-26 09:03:00,43.2,25.8,30.15,North,349,1.0,6.0,50,0.00,,,0.00,VWS V14.01,2013-03-26 13:03:00,
2013-03-26 09:10:00,43.3,26.4,30.15,SW,224,4.0,7.0,51,0.00,,,0.00,VWS V14.01,2013-03-26 13:10:00,
2013-03-26 09:16:00,43.2,25.8,30.16,SSW,213,1.0,10.0,50,0.00,,,0.00,VWS V14.01,2013-03-26 13:16:00,
2013-03-26 09:22:00,43.4,25.0,30.15,WSW,243,1.0,7.0,48,0.00,,,0.00,VWS V14.01,2013-03-26 13:22:00,
2013-03-26 09:28:00,43.8,24.9,30.15,SSW,212,4.0,10.0,47,0.00,,,0.00,VWS V14.01,2013-03-26 13:28:00,
2013-03-26 09:35:00,44.0,25.6,30.16,SW,220,3.0,7.0,48,0.00,,,0.00,VWS V14.01,2013-03-26 13:35:00,
2013-03-26 09:41:00,43.9,25.0,30.15,SSW,212,2.0,12.0,47,0.00,,,0.00,VWS V14.01,2013-03-26 13:41:00,
2013-03-26 09:47:00,44.1,25.2,30.16,WSW,247,3.0,6.0,47,0.00,,,0.00,VWS V14.01,2013-03-26 13:47:00,
2013-03-26 09:53:00,44.5,25.5,30.16,SW,225,0.0,7.0,47,0.00,,,0.00,VWS V14.01,2013-03-26 13:53:00,
2013-03-26 09:58:00,44.4,24.4,30.16,WSW,253,6.0,10.0,45,0.00,,,0.00,VWS V14.01,2013-03-26 13:58:00,
2013-03-26 10:03:00,44.3,24.8,30.16,West,259,4.0,8.0,46,0.00,,,0.00,VWS V14.01,2013-03-26 14:03:00,
2013-03-26 10:13:00,44.3,24.3,30.15,WSW,250,0.0,12.0,45,0.00,,,0.00,VWS V14.01,2013-03-26 14:13:00,
2013-03-26 10:18:00,44.8,25.8,30.16,SE,127,0.0,5.0,47,0.00,,,0.00,VWS V14.01,2013-03-26 14:18:00,
2013-03-26 10:26:00,45.4,26.4,30.15,West,278,7.0,10.0,47,0.00,,,0.00,VWS V14.01,2013-03-26 14:26:00,
2013-03-26 10:32:00,45.2,25.7,30.16,North,4,0.0,13.0,46,0.00,,,0.00,VWS V14.01,2013-03-26 14:32:00,
2013-03-26 10:38:00,45.6,26.0,30.15,NW,316,4.0,11.0,46,0.00,,,0.00,VWS V14.01,2013-03-26 14:38:00,
2013-03-26 10:43:00,45.8,26.2,30.15,West,260,11.0,11.0,46,0.00,,,0.00,VWS V14.01,2013-03-26 14:43:00,
2013-03-26 10:48:00,45.8,26.2,30.15,WNW,297,0.0,11.0,46,0.00,,,0.00,VWS V14.01,2013-03-26 14:48:00,
2013-03-26 10:54:00,45.9,25.8,30.15,NW,307,0.0,1.0,45,0.00,,,0.00,VWS V14.01,2013-03-26 14:54:00,
2013-03-26 11:00:00,46.4,26.8,30.15,West,260,2.0,10.0,46,0.00,,,0.00,VWS V14.01,2013-03-26 15:00:00,
2013-03-26 11:06:00,46.7,27.0,30.15,WSW,243,4.0,4.0,46,0.00,,,0.00,VWS V14.01,2013-03-26 15:06:00,
2013-03-26 11:12:00,47.0,26.2,30.15,WSW,256,4.0,10.0,44,0.00,,,0.00,VWS V14.01,2013-03-26 15:12:00,
2013-03-26 11:18:00,47.2,27.0,30.15,West,264,9.0,11.0,45,0.00,,,0.00,VWS V14.01,2013-03-26 15:18:00,
2013-03-26 11:23:00,47.2,26.4,30.15,WSW,253,5.0,12.0,44,0.00,,,0.00,VWS V14.01,2013-03-26 15:23:00,
2013-03-26 11:30:00,47.5,26.1,30.15,SSW,212,1.0,11.0,43,0.00,,,0.00,VWS V14.01,2013-03-26 15:30:00,
2013-03-26 11:36:00,47.9,25.9,30.16,West,263,8.0,8.0,42,0.00,,,0.00,VWS V14.01,2013-03-26 15:36:00,
2013-03-26 11:42:00,48.0,26.6,30.15,NE,54,0.0,8.0,43,0.00,,,0.00,VWS V14.01,2013-03-26 15:42:00,
2013-03-26 11:48:00,48.2,26.2,30.15,WSW,253,8.0,8.0,42,0.00,,,0.00,VWS V14.01,2013-03-26 15:48:00,
2013-03-26 11:54:00,48.6,26.0,30.15,SW,235,5.0,12.0,41,0.00,,,0.00,VWS V14.01,2013-03-26 15:54:00,
2013-03-26 12:00:00,48.8,26.2,30.15,West,270,5.0,8.0,41,0.00,,,0.00,VWS V14.01,2013-03-26 16:00:00,
2013-03-26 12:08:00,48.7,27.8,30.15,WSW,237,4.0,9.0,44,0.00,,,0.00,VWS V14.01,2013-03-26 16:08:00,
2013-03-26 12:15:00,49.7,27.0,30.15,SW,233,3.0,6.0,41,0.00,,,0.00,VWS V14.01,2013-03-26 16:15:00,
2013-03-26 12:21:00,50.3,26.9,30.15,WSW,252,2.0,8.0,40,0.00,,,0.00,VWS V14.01,2013-03-26 16:21:00,
2013-03-26 12:27:00,50.3,26.9,30.15,West,279,6.0,13.0,40,0.00,,,0.00,VWS V14.01,2013-03-26 16:27:00,
2013-03-26 12:33:00,50.3,26.9,30.15,SW,220,4.0,10.0,40,0.00,,,0.00,VWS V14.01,2013-03-26 16:33:00,
2013-03-26 12:38:00,50.3,27.5,30.15,ENE,64,0.0,15.0,41,0.00,,,0.00,VWS V14.01,2013-03-26 16:38:00,
2013-03-26 12:46:00,51.2,27.7,30.15,West,279,2.0,7.0,40,0.00,,,0.00,VWS V14.01,2013-03-26 16:46:00,
2013-03-26 12:52:00,51.7,27.6,30.14,SSE,157,1.0,7.0,39,0.00,,,0.00,VWS V14.01,2013-03-26 16:52:00,
2013-03-26 12:58:00,51.8,27.6,30.14,SW,230,6.0,11.0,39,0.00,,,0.00,VWS V14.01,2013-03-26 16:58:00,
2013-03-26 13:03:00,51.5,28.0,30.14,SW,218,2.0,10.0,40,0.00,,,0.00,VWS V14.01,2013-03-26 17:03:00,
2013-03-26 13:08:00,51.7,28.2,30.14,West,262,4.0,10.0,40,0.00,,,0.00,VWS V14.01,2013-03-26 17:08:00,
2013-03-26 13:16:00,51.3,29.0,30.14,SSW,209,6.0,21.0,42,0.00,,,0.00,VWS V14.01,2013-03-26 17:16:00,
2013-03-26 13:22:00,51.3,27.8,30.14,WSW,248,2.0,10.0,40,0.00,,,0.00,VWS V14.01,2013-03-26 17:22:00,
2013-03-26 13:28:00,51.4,27.3,30.14,WSW,249,7.0,11.0,39,0.00,,,0.00,VWS V14.01,2013-03-26 17:28:00,
2013-03-26 13:33:00,51.4,28.5,30.14,SSW,213,12.0,13.0,41,0.00,,,0.00,VWS V14.01,2013-03-26 17:33:00,
2013-03-26 13:40:00,52.1,28.5,30.14,SW,214,3.0,5.0,40,0.00,,,0.00,VWS V14.01,2013-03-26 17:40:00,
2013-03-26 13:46:00,52.3,27.5,30.14,WSW,245,5.0,12.0,38,0.00,,,0.00,VWS V14.01,2013-03-26 17:46:00,
2013-03-26 13:52:00,51.8,27.6,30.13,SSW,204,0.0,12.0,39,0.00,,,0.00,VWS V14.01,2013-03-26 17:52:00,
2013-03-26 13:58:00,52.1,27.9,30.13,SW,226,4.0,14.0,39,0.00,,,0.00,VWS V14.01,2013-03-26 17:58:00,
2013-03-26 14:03:00,52.4,27.6,30.13,SW,224,2.0,13.0,38,0.00,,,0.00,VWS V14.01,2013-03-26 18:03:00,
2013-03-26 14:08:00,53.0,28.1,30.13,WSW,245,7.0,10.0,38,0.00,,,0.00,VWS V14.01,2013-03-26 18:08:00,
2013-03-26 14:13:00,53.2,28.3,30.13,SW,217,3.0,12.0,38,0.00,,,0.00,VWS V14.01,2013-03-26 18:13:00,
2013-03-26 14:20:00,53.4,27.8,30.13,WSW,258,6.0,8.0,37,0.00,,,0.00,VWS V14.01,2013-03-26 18:20:00,
2013-03-26 14:26:00,53.5,27.9,30.12,WSW,252,8.0,13.0,37,0.00,,,0.00,VWS V14.01,2013-03-26 18:26:00,
2013-03-26 14:32:00,53.8,28.2,30.12,WSW,243,9.0,9.0,37,0.00,,,0.00,VWS V14.01,2013-03-26 18:32:00,
2013-03-26 14:38:00,53.8,28.2,30.12,SW,222,6.0,12.0,37,0.00,,,0.00,VWS V14.01,2013-03-26 18:38:00,
2013-03-26 14:43:00,54.2,27.9,30.12,WNW,293,6.0,14.0,36,0.00,,,0.00,VWS V14.01,2013-03-26 18:43:00,
2013-03-26 14:50:00,53.5,27.2,30.11,SW,234,6.0,7.0,36,0.00,,,0.00,VWS V14.01,2013-03-26 18:50:00,
2013-03-26 14:56:00,53.8,27.5,30.11,South,180,0.0,12.0,36,0.00,,,0.00,VWS V14.01,2013-03-26 18:56:00,
2013-03-26 15:02:00,54.5,28.1,30.11,South,170,1.0,4.0,36,0.00,,,0.00,VWS V14.01,2013-03-26 19:02:00,
2013-03-26 15:08:00,54.7,26.9,30.11,East,93,3.0,10.0,34,0.00,,,0.00,VWS V14.01,2013-03-26 19:08:00,
2013-03-26 15:13:00,54.9,28.5,30.11,WSW,251,0.0,9.0,36,0.00,,,0.00,VWS V14.01,2013-03-26 19:13:00,
2013-03-26 15:20:00,54.7,27.6,30.10,WSW,245,4.0,11.0,35,0.00,,,0.00,VWS V14.01,2013-03-26 19:20:00,
2013-03-26 15:26:00,54.2,27.9,30.10,West,272,5.0,13.0,36,0.00,,,0.00,VWS V14.01,2013-03-26 19:26:00,
2013-03-26 15:32:00,54.4,27.3,30.10,SE,140,0.0,12.0,35,0.00,,,0.00,VWS V14.01,2013-03-26 19:32:00,
2013-03-26 15:38:00,55.0,28.6,30.10,WSW,239,3.0,6.0,36,0.00,,,0.00,VWS V14.01,2013-03-26 19:38:00,
2013-03-26 15:43:00,55.2,28.0,30.10,East,79,1.0,12.0,35,0.00,,,0.00,VWS V14.01,2013-03-26 19:43:00,
2013-03-26 15:51:00,55.2,28.0,30.10,SW,233,4.0,9.0,35,0.00,,,0.00,VWS V14.01,2013-03-26 19:51:00,
2013-03-26 15:57:00,55.3,27.4,30.10,SW,236,5.0,11.0,34,0.00,,,0.00,VWS V14.01,2013-03-26 19:57:00,
2013-03-26 16:03:00,55.5,28.3,30.09,SW,231,0.0,10.0,35,0.00,,,0.00,VWS V14.01,2013-03-26 20:03:00,
2013-03-26 16:08:00,55.9,28.7,30.09,SSE,164,0.0,9.0,35,0.00,,,0.00,VWS V14.01,2013-03-26 20:08:00,
2013-03-26 16:13:00,56.0,28.8,30.10,WSW,240,5.0,12.0,35,0.00,,,0.00,VWS V14.01,2013-03-26 20:13:00,
2013-03-26 16:23:00,55.3,28.8,30.09,WSW,242,4.0,10.0,36,0.00,,,0.00,VWS V14.01,2013-03-26 20:23:00,
2013-03-26 16:28:00,55.9,30.0,30.09,SW,233,2.0,5.0,37,0.00,,,0.00,VWS V14.01,2013-03-26 20:28:00,
2013-03-26 16:33:00,56.3,29.0,30.10,SE,138,1.0,9.0,35,0.00,,,0.00,VWS V14.01,2013-03-26 20:33:00,
2013-03-26 16:38:00,56.3,28.3,30.10,SW,227,5.0,8.0,34,0.00,,,0.00,VWS V14.01,2013-03-26 20:38:00,
2013-03-26 16:43:00,55.8,28.6,30.10,West,261,5.0,9.0,35,0.00,,,0.00,VWS V14.01,2013-03-26 20:43:00,
2013-03-26 16:48:00,55.9,29.4,30.10,SW,235,4.0,9.0,36,0.00,,,0.00,VWS V14.01,2013-03-26 20:48:00,
2013-03-26 16:53:00,56.0,28.8,30.10,NE,48,0.0,8.0,35,0.00,,,0.00,VWS V14.01,2013-03-26 20:53:00,
2013-03-26 16:58:00,55.8,28.6,30.10,West,263,4.0,10.0,35,0.00,,,0.00,VWS V14.01,2013-03-26 20:58:00,
2013-03-26 17:03:00,55.9,29.4,30.10,WSW,243,6.0,6.0,36,0.00,,,0.00,VWS V14.01,2013-03-26 21:03:00,
2013-03-26 17:09:00,55.9,27.2,30.10,NNW,348,2.0,10.0,33,0.00,,,0.00,VWS V14.01,2013-03-26 21:09:00,
2013-03-26 17:15:00,55.7,27.8,30.11,North,11,3.0,13.0,34,0.00,,,0.00,VWS V14.01,2013-03-26 21:15:00,
2013-03-26 17:22:00,55.5,27.6,30.11,WNW,293,0.0,8.0,34,0.00,,,0.00,VWS V14.01,2013-03-26 21:22:00,
2013-03-26 17:28:00,55.3,28.1,30.11,NE,49,2.0,12.0,35,0.00,,,0.00,VWS V14.01,2013-03-26 21:28:00,
2013-03-26 17:33:00,55.0,27.9,30.11,WSW,243,5.0,11.0,35,0.00,,,0.00,VWS V14.01,2013-03-26 21:33:00,
2013-03-26 17:38:00,54.8,29.0,30.11,NE,46,1.0,9.0,37,0.00,,,0.00,VWS V14.01,2013-03-26 21:38:00,
2013-03-26 17:48:00,54.8,27.7,30.12,SSW,210,2.0,9.0,35,0.00,,,0.00,VWS V14.01,2013-03-26 21:48:00,
2013-03-26 17:53:00,55.0,27.9,30.12,SW,233,4.0,9.0,35,0.00,,,0.00,VWS V14.01,2013-03-26 21:53:00,
2013-03-26 17:58:00,55.1,28.6,30.12,WSW,256,0.0,13.0,36,0.00,,,0.00,VWS V14.01,2013-03-26 21:58:00,
2013-03-26 18:04:00,55.2,28.0,30.12,WSW,257,9.0,10.0,35,0.00,,,0.00,VWS V14.01,2013-03-26 22:04:00,
2013-03-26 18:10:00,54.6,28.9,30.12,WSW,248,4.0,7.0,37,0.00,,,0.00,VWS V14.01,2013-03-26 22:10:00,
2013-03-26 18:16:00,54.4,28.7,30.12,SW,229,4.0,11.0,37,0.00,,,0.00,VWS V14.01,2013-03-26 22:16:00,
2013-03-26 18:22:00,54.4,29.3,30.13,NNW,342,7.0,8.0,38,0.00,,,0.00,VWS V14.01,2013-03-26 22:22:00,
2013-03-26 18:28:00,54.3,28.6,30.13,SW,230,3.0,9.0,37,0.00,,,0.00,VWS V14.01,2013-03-26 22:28:00,
2013-03-26 18:33:00,54.1,29.1,30.13,WNW,301,0.0,7.0,38,0.00,,,0.00,VWS V14.01,2013-03-26 22:33:00,
2013-03-26 18:38:00,54.0,29.0,30.13,SE,133,0.0,9.0,38,0.00,,,0.00,VWS V14.01,2013-03-26 22:38:00,
2013-03-26 18:43:00,54.0,29.0,30.13,WSW,252,2.0,7.0,38,0.00,,,0.00,VWS V14.01,2013-03-26 22:43:00,
2013-03-26 18:48:00,53.8,28.8,30.13,WSW,246,5.0,11.0,38,0.00,,,0.00,VWS V14.01,2013-03-26 22:48:00,
2013-03-26 18:53:00,53.4,28.5,30.14,West,269,10.0,12.0,38,0.00,,,0.00,VWS V14.01,2013-03-26 22:53:00,
2013-03-26 18:58:00,53.2,28.9,30.14,WSW,247,1.0,12.0,39,0.00,,,0.00,VWS V14.01,2013-03-26 22:58:00,
2013-03-26 19:03:00,53.1,28.8,30.14,SW,214,7.0,9.0,39,0.00,,,0.00,VWS V14.01,2013-03-26 23:03:00,
2013-03-26 19:08:00,53.0,28.1,30.14,South,173,0.0,10.0,38,0.00,,,0.00,VWS V14.01,2013-03-26 23:08:00,
2013-03-26 19:13:00,52.9,28.6,30.14,West,260,8.0,11.0,39,0.00,,,0.00,VWS V14.01,2013-03-26 23:13:00,
2013-03-26 19:18:00,52.6,28.4,30.15,SW,222,4.0,8.0,39,0.00,,,0.00,VWS V14.01,2013-03-26 23:18:00,
2013-03-26 19:23:00,52.3,28.7,30.15,SSE,162,0.0,8.0,40,0.00,,,0.00,VWS V14.01,2013-03-26 23:23:00,
2013-03-26 19:28:00,52.1,28.5,30.15,WSW,240,0.0,7.0,40,0.00,,,0.00,VWS V14.01,2013-03-26 23:28:00,
2013-03-26 19:35:00,51.8,28.9,30.15,WSW,248,0.0,1.0,41,0.00,,,0.00,VWS V14.01,2013-03-26 23:35:00,
2013-03-26 19:41:00,51.6,29.3,30.16,WSW,245,4.0,5.0,42,0.00,,,0.00,VWS V14.01,2013-03-26 23:41:00,
2013-03-26 19:47:00,51.4,29.1,30.16,NNW,343,0.0,6.0,42,0.00,,,0.00,VWS V14.01,2013-03-26 23:47:00,
2013-03-26 19:53:00,51.3,29.0,30.16,West,266,3.0,3.0,42,0.00,,,0.00,VWS V14.01,2013-03-26 23:53:00,
2013-03-26 19:59:00,51.1,28.8,30.17,West,266,2.0,6.0,42,0.00,,,0.00,VWS V14.01,2013-03-26 23:59:00,
2013-03-26 20:05:00,51.0,29.3,30.17,WSW,250,3.0,6.0,43,0.00,,,0.00,VWS V14.01,2013-03-27 00:05:00,
2013-03-26 20:11:00,50.9,29.2,30.17,SW,236,0.0,5.0,43,0.00,,,0.00,VWS V14.01,2013-03-27 00:11:00,
2013-03-26 20:17:00,50.8,29.7,30.17,NE,54,0.0,3.0,44,0.00,,,0.00,VWS V14.01,2013-03-27 00:17:00,
2013-03-26 20:23:00,50.7,30.1,30.18,NE,54,0.0,1.0,45,0.00,,,0.00,VWS V14.01,2013-03-27 00:23:00,
2013-03-26 20:28:00,50.5,30.0,30.18,West,268,0.0,4.0,45,0.00,,,0.00,VWS V14.01,2013-03-27 00:28:00,
2013-03-26 20:33:00,50.4,29.9,30.18,NNE,16,0.0,4.0,45,0.00,,,0.00,VWS V14.01,2013-03-27 00:33:00,
2013-03-26 20:38:00,50.3,29.8,30.19,NNW,330,0.0,3.0,45,0.00,,,0.00,VWS V14.01,2013-03-27 00:38:00,
2013-03-26 20:43:00,50.1,30.1,30.19,NNW,331,0.0,2.0,46,0.00,,,0.00,VWS V14.01,2013-03-27 00:43:00,
2013-03-26 20:48:00,50.0,30.0,30.19,South,182,0.0,1.0,46,0.00,,,0.00,VWS V14.01,2013-03-27 00:48:00,
2013-03-26 20:53:00,49.9,30.0,30.19,South,183,0.0,0.0,46,0.00,,,0.00,VWS V14.01,2013-03-27 00:53:00,
2013-03-26 20:58:00,49.7,30.3,30.19,South,183,0.0,1.0,47,0.00,,,0.00,VWS V14.01,2013-03-27 00:58:00,
2013-03-26 21:06:00,49.6,30.2,30.20,East,95,0.0,2.0,47,0.00,,,0.00,VWS V14.01,2013-03-27 01:06:00,
2013-03-26 21:12:00,49.4,30.5,30.20,East,96,0.0,0.0,48,0.00,,,0.00,VWS V14.01,2013-03-27 01:12:00,
2013-03-26 21:18:00,49.2,30.4,30.20,NE,47,0.0,1.0,48,0.00,,,0.00,VWS V14.01,2013-03-27 01:18:00,
2013-03-26 21:23:00,49.0,30.7,30.20,North,4,0.0,3.0,49,0.00,,,0.00,VWS V14.01,2013-03-27 01:23:00,
2013-03-26 21:28:00,49.0,30.7,30.21,West,276,0.0,1.0,49,0.00,,,0.00,VWS V14.01,2013-03-27 01:28:00,
2013-03-26 21:33:00,48.9,30.6,30.21,West,276,0.0,1.0,49,0.00,,,0.00,VWS V14.01,2013-03-27 01:33:00,
2013-03-26 21:38:00,48.8,30.5,30.21,North,359,0.0,3.0,49,0.00,,,0.00,VWS V14.01,2013-03-27 01:38:00,
2013-03-26 21:43:00,48.7,30.9,30.22,North,359,0.0,1.0,50,0.00,,,0.00,VWS V14.01,2013-03-27 01:43:00,
2013-03-26 21:48:00,48.6,30.8,30.22,North,359,0.0,1.0,50,0.00,,,0.00,VWS V14.01,2013-03-27 01:48:00,
2013-03-26 21:53:00,48.4,30.6,30.22,WNW,303,0.0,3.0,50,0.00,,,0.00,VWS V14.01,2013-03-27 01:53:00,
2013-03-26 21:58:00,48.3,31.0,30.22,NNE,18,0.0,2.0,51,0.00,,,0.00,VWS V14.01,2013-03-27 01:58:00,
2013-03-26 22:08:00,48.1,30.8,30.23,NW,309,0.0,3.0,51,0.00,,,0.00,VWS V14.01,2013-03-27 02:08:00,
2013-03-26 22:13:00,48.0,30.8,30.23,West,271,0.0,1.0,51,0.00,,,0.00,VWS V14.01,2013-03-27 02:13:00,
2013-03-26 22:18:00,47.9,30.7,30.23,NNW,335,0.0,4.0,51,0.00,,,0.00,VWS V14.01,2013-03-27 02:18:00,
2013-03-26 22:23:00,47.9,30.7,30.23,NNE,15,1.0,5.0,51,0.00,,,0.00,VWS V14.01,2013-03-27 02:23:00,
2013-03-26 22:28:00,47.9,30.7,30.23,North,4,0.0,3.0,51,0.00,,,0.00,VWS V14.01,2013-03-27 02:28:00,
2013-03-26 22:33:00,47.8,30.6,30.23,East,81,0.0,1.0,51,0.00,,,0.00,VWS V14.01,2013-03-27 02:33:00,
2013-03-26 22:38:00,47.7,31.0,30.24,North,4,0.0,2.0,52,0.00,,,0.00,VWS V14.01,2013-03-27 02:38:00,
2013-03-26 22:43:00,47.6,30.4,30.24,NW,304,0.0,2.0,51,0.00,,,0.00,VWS V14.01,2013-03-27 02:43:00,
2013-03-26 22:48:00,47.6,30.4,30.24,NE,41,0.0,4.0,51,0.00,,,0.00,VWS V14.01,2013-03-27 02:48:00,
2013-03-26 22:53:00,47.5,30.8,30.24,NE,41,0.0,0.0,52,0.00,,,0.00,VWS V14.01,2013-03-27 02:53:00,
2013-03-26 22:58:00,47.4,30.7,30.24,NNE,23,0.0,1.0,52,0.00,,,0.00,VWS V14.01,2013-03-27 02:58:00,
2013-03-26 23:03:00,47.3,30.6,30.25,NNE,23,0.0,1.0,52,0.00,,,0.00,VWS V14.01,2013-03-27 03:03:00,
2013-03-26 23:08:00,47.2,31.0,30.25,North,354,0.0,1.0,53,0.00,,,0.00,VWS V14.01,2013-03-27 03:08:00,
2013-03-26 23:13:00,47.0,30.8,30.25,North,354,0.0,0.0,53,0.00,,,0.00,VWS V14.01,2013-03-27 03:13:00,
2013-03-26 23:18:00,46.9,30.7,30.25,North,354,0.0,1.0,53,0.00,,,0.00,VWS V14.01,2013-03-27 03:18:00,
2013-03-26 23:23:00,46.8,30.6,30.25,North,354,0.0,0.0,53,0.00,,,0.00,VWS V14.01,2013-03-27 03:23:00,
2013-03-26 23:28:00,46.7,30.5,30.25,North,349,0.0,0.0,53,0.00,,,0.00,VWS V14.01,2013-03-27 03:28:00,
2013-03-26 23:33:00,46.7,30.5,30.25,NE,37,1.0,2.0,53,0.00,,,0.00,VWS V14.01,2013-03-27 03:33:00,
2013-03-26 23:38:00,46.7,30.5,30.25,NW,314,0.0,3.0,53,0.00,,,0.00,VWS V14.01,2013-03-27 03:38:00,
2013-03-26 23:43:00,46.6,30.4,30.25,East,95,0.0,4.0,53,0.00,,,0.00,VWS V14.01,2013-03-27 03:43:00,
2013-03-26 23:48:00,46.6,30.4,30.25,SSW,193,1.0,2.0,53,0.00,,,0.00,VWS V14.01,2013-03-27 03:48:00,
2013-03-26 23:53:00,46.5,30.3,30.25,SW,226,0.0,1.0,53,0.00,,,0.00,VWS V14.01,2013-03-27 03:53:00,
2013-03-26 23:58:00,46.5,30.3,30.25,North,359,0.0,4.0,53,0.00,,,0.00,VWS V14.01,2013-03-27 03:58:00,